Salem, OR

6:33 AM PDT on April 26, 2017 (GMT -0700)
McNary

Weather History for KSLE - January, 2013

Change the Weather History Date:

Wednesday, January 30, 2013

  Actual Average Record
Temperature  
Mean Temperature 47 °F 42 °F  
Max Temperature 50 °F 50 °F 64 °F (1971)
Min Temperature 43 °F 35 °F -3 °F (1950)
Degree Days  
Heating Degree Days 18 23  
Month to date heating degree days 839 715  
Since 1 July heating degree days 2451 2604  
Cooling Degree Days 0 0  
Month to date cooling degree days 0 0  
Year to date cooling degree days 0 0  
Moisture  
Dew Point 44 °F    
Average Humidity 93    
Maximum Humidity 100    
Minimum Humidity 86    
Precipitation  
Precipitation 0.03 in 0.18 in 1.64 in (1997)
Month to date precipitation 1.63 5.79  
Year to date precipitation 1.63 5.79  
Snow  
Snow 0.00 in - - ()
Month to date snowfall 0.0  
Snow Depth 0.00 in    
Sea Level Pressure  
Sea Level Pressure 30.47 in    
Wind  
Wind Speed 11 mph (South)    
Max Wind Speed 21 mph    
Max Gust Speed 26 mph    
Visibility 9 miles    
Events Rain    
T = Trace of Precipitation, MM = Missing Value Source: NWS Daily Summary

Daily Weather History Graph

Daily Weather History Graph

Search for Another Location

Airport or City:

Trip Planner

Search our weather history database for the weather conditions in past years. The results will help you decide how hot, cold, wet, or windy it might be!

Date:

Astronomy

Jan. 30, 2013 Rise Set
Actual Time 7:33 AM PST 5:17 PM PST
Civil Twilight 7:02 AM PST 5:49 PM PST
Nautical Twilight 6:26 AM PST 6:24 PM PST
Astronomical Twilight 5:52 AM PST 6:58 PM PST
Moon 9:36 PM PST (1/30) 8:52 AM PST (1/30)
Length of Visible Light 10h 47m
Length of Day
9h 44m
Waning Gibbous, 87% of the Moon is Illuminated
Jan 30
Waning Gibbous
Feb 3
Last Quarter
Feb 9
New
Feb 17
First Quarter
Feb 25
Full

Hourly Weather History & Observations

Time (PST) Temp. Windchill Dew Point Humidity Pressure Visibility Wind Dir Wind Speed Gust Speed Precip Events Conditions
12:56 AM 43.0 °F 36.4 °F 41.0 °F 93% 30.49 in 10.0 mi South 12.7 mph - N/A   Overcast
1:56 AM 44.1 °F 37.7 °F 41.0 °F 89% 30.49 in 10.0 mi South 12.7 mph - N/A   Overcast
2:56 AM 43.0 °F 36.8 °F 41.0 °F 93% 30.48 in 10.0 mi South 11.5 mph - N/A   Overcast
3:47 AM 42.8 °F 34.8 °F 41.0 °F 93% 30.47 in 10.0 mi SSE 17.3 mph 24.2 mph N/A   Overcast
3:56 AM 43.0 °F 34.8 °F 41.0 °F 93% 30.48 in 10.0 mi South 18.4 mph - N/A   Overcast
4:16 AM 44.6 °F 37.2 °F 41.0 °F 87% 30.47 in 10.0 mi South 17.3 mph - N/A   Overcast
4:56 AM 44.1 °F 37.1 °F 41.0 °F 89% 30.47 in 10.0 mi South 15.0 mph - N/A   Overcast
5:31 AM 44.6 °F 38.1 °F 42.8 °F 93% 30.46 in 10.0 mi South 13.8 mph 21.9 mph N/A   Overcast
5:56 AM 44.1 °F 37.4 °F 42.1 °F 93% 30.47 in 10.0 mi South 13.8 mph - N/A   Overcast
6:29 AM 44.6 °F 36.9 °F 41.0 °F 87% 30.47 in 10.0 mi South 18.4 mph 24.2 mph N/A   Overcast
6:43 AM 44.6 °F 36.6 °F 41.0 °F 87% 30.47 in 10.0 mi South 19.6 mph - N/A   Overcast
6:56 AM 44.1 °F 37.4 °F 41.0 °F 89% 30.48 in 10.0 mi South 13.8 mph - N/A   Overcast
7:56 AM 44.1 °F 36.8 °F 41.0 °F 89% 30.48 in 10.0 mi South 16.1 mph - N/A   Overcast
8:56 AM 45.0 °F 38.9 °F 42.1 °F 90% 30.49 in 10.0 mi South 12.7 mph - N/A   Overcast
9:56 AM 45.0 °F 38.9 °F 42.1 °F 90% 30.50 in 10.0 mi South 12.7 mph 21.9 mph N/A   Overcast
10:56 AM 46.9 °F - 43.0 °F 86% 30.49 in 10.0 mi South 16.1 mph - N/A   Overcast
11:56 AM 48.0 °F - 44.1 °F 86% 30.49 in 10.0 mi South 16.1 mph 21.9 mph N/A   Overcast
12:56 PM 48.0 °F - 45.0 °F 89% 30.47 in 10.0 mi South 12.7 mph - N/A   Overcast
1:48 PM 50.0 °F - 44.6 °F 82% 30.46 in 10.0 mi South 13.8 mph - N/A   Overcast
1:56 PM 48.9 °F - 45.0 °F 86% 30.46 in 10.0 mi South 15.0 mph - N/A   Overcast
2:56 PM 50.0 °F - 46.0 °F 86% 30.46 in 10.0 mi SSE 9.2 mph - N/A   Overcast
3:30 PM 48.2 °F - 46.4 °F 93% 30.46 in 5.0 mi SSE 12.7 mph - 0.00 in Rain Light Rain
3:56 PM 48.9 °F - 48.0 °F 97% 30.46 in 6.0 mi South 6.9 mph - 0.00 in   Overcast
4:03 PM 48.2 °F - 48.2 °F 100% 30.46 in 9.0 mi South 6.9 mph - N/A   Overcast
4:31 PM 48.2 °F - 48.2 °F 100% 30.46 in 4.0 mi NNW 4.6 mph - 0.00 in Rain Light Rain
4:39 PM 48.2 °F - 48.2 °F 100% 30.46 in 3.0 mi WNW 5.8 mph - 0.01 in Rain Light Rain
4:56 PM 50.0 °F - 48.0 °F 93% 30.46 in 6.0 mi South 10.4 mph - 0.01 in   Overcast
5:36 PM 48.2 °F - 46.4 °F 93% 30.46 in 6.0 mi South 6.9 mph - N/A   Overcast
5:56 PM 48.9 °F - 46.9 °F 93% 30.46 in 7.0 mi South 9.2 mph - N/A   Mostly Cloudy
6:56 PM 48.9 °F - 46.0 °F 90% 30.45 in 10.0 mi South 8.1 mph - N/A   Mostly Cloudy
7:56 PM 48.0 °F - 46.0 °F 93% 30.46 in 10.0 mi SSE 3.5 mph - N/A   Overcast
8:22 PM 46.4 °F 45.2 °F 46.4 °F 100% 30.45 in 8.0 mi SSE 3.5 mph - 0.01 in Rain Light Rain
8:56 PM 46.9 °F - 46.0 °F 97% 30.46 in 9.0 mi SE 3.5 mph - 0.01 in   Overcast
9:29 PM 46.4 °F 45.2 °F 46.4 °F 100% 30.46 in 10.0 mi SSE 3.5 mph - N/A   Overcast
9:56 PM 46.9 °F - 46.0 °F 97% 30.47 in 10.0 mi Calm Calm - N/A   Overcast
10:56 PM 46.0 °F 44.8 °F 46.0 °F 100% 30.47 in 4.0 mi South 3.5 mph - 0.01 in   Overcast
11:51 PM 46.4 °F 44.3 °F 46.4 °F 100% 30.46 in 10.0 mi SE 4.6 mph - N/A   Overcast
11:56 PM 46.0 °F 44.8 °F 46.0 °F 100% 30.46 in 10.0 mi SSE 3.5 mph - N/A   Overcast